Regional Weather Roundup
Issued by NWS Green Bay, WI

Home | Current Version | Previous Version | Graphics & Text | Print | Product List | Glossary Off
Versions: 1 2 3 4 5 6 7 8 9 10 11 12 13 14 15 16 17 18 19 20 21 22 23 24 25 26 27 28 29 30 31 32 33 34 35 36 37 38 39 40 41 42 43 44 45 46 47 48 49 50

812
ASUS43 KGRB 121511
RWRGRB

NORTH-CENTRAL AND NORTHEAST WISCONSIN REGIONAL WEATHER ROUNDUP
NATIONAL WEATHER SERVICE GREEN BAY WI
900 AM CST TUE DEC 12 2017

WIZ005-009-010>012-018-019-121600-
NORTH CENTRAL WISCONSIN

CITY           SKY/WX    TMP DP  RH WIND       PRES   REMARKS
IRONWOOD       LGT SNOW   8   4  83 W9        30.05F FOG     WCI  -5
MANITOWISH WTR LGT SNOW   6   2  84 NW8       30.01S WCI  -7
ARBOR VITAE    LGT SNOW   9   4  80 NW6       30.01R WCI  -1
EAGLE RIVER    CLOUDY    10   2  73 NW10      29.98S HAZE    WCI  -4
LAND O LAKES   LGT SNOW  10   5  80 NW6       29.99S WCI   0
RHINELANDER    CLOUDY     8   3  80 W10       30.00S WCI  -6
PHILLIPS       CLOUDY     4  -1  82 NW7       30.06S WCI  -8
ANTIGO         CLOUDY    10   2  71 NW13G20   30.01R WCI  -5
TOMAHAWK       CLOUDY     7   0  74 NW8       30.04S WCI  -6
MERRILL        CLOUDY     9   0  66 NW10      30.06R WCI  -6
$$

WIZ013-073-121600-
NORTHEAST WISCONSIN

CITY           SKY/WX    TMP DP  RH WIND       PRES   REMARKS
IRON MOUNTAIN  CLOUDY    10   3  73 NW9       29.99S WCI  -3
MARINETTE      FLURRIES  14   2  58 N16       30.06S WCI  -2
OCONTO         CLOUDY    13   4  67 N7        30.06S WCI   3
$$

WIZ017-030-035>037-045-121600-
CENTRAL WISCONSIN

CITY           SKY/WX    TMP DP  RH WIND       PRES   REMARKS
MEDFORD        PTSUNNY    5  -1  76 NW12      30.06S WCI -11
WAUSAU         PTSUNNY   10   1  67 NW13      30.05S WCI  -5
MOSINEE        MOSUNNY   10   3  72 NW9G15    30.07S WCI  -2
MARSHFIELD     MOSUNNY    7   1  76 NW13      30.08R WCI  -9
WISC RAPIDS    MOSUNNY   10   2  69 NW10      30.11R WCI  -4
STEVENS POINT  MOSUNNY   10   1  64 NW10G16   30.08S WCI  -3
WAUPACA        CLOUDY    17   3  55 NW12      30.08S WCI   4
SHAWANO        CLOUDY    17   6  61 NW5       30.06R
CLINTONVILLE   CLOUDY    16   3  57 NW12G20   30.06S WCI   3
WAUTOMA        CLOUDY    12   3  67 NW12      30.10S WCI  -2
$$

WIZ038-039-048-051-121600-
FOX VALLEY

CITY           SKY/WX    TMP DP  RH WIND       PRES   REMARKS
NWS GREEN BAY  CLOUDY    16   6  65 NW14      30.06S WCI   2
APPLETON       CLOUDY    16   5  62 NW15      30.04R WCI   1
OSHKOSH        CLOUDY    16   5  62 NW14      30.06R WCI   2
FOND DU LAC    CLOUDY    16   3  56 NW14G23   30.06S WCI   2
$$

WIZ022-050-052-121600-
EAST CENTRAL WISCONSIN

CITY           SKY/WX    TMP DP  RH WIND       PRES   REMARKS
EPHRAIM        FAIR      13   0  57 NW21G28   30.00S WCI  -6
WASHINGTON ISL PTSUNNY   13   3  63 N20G32    29.99S WCI  -5
STURGEON BAY   MOSUNNY   14   2  58 NW25G31   30.03S WCI  -5
MANITOWOC      CLOUDY    15   6  67 N18       30.05R WCI  -2
SHEBOYGAN      CLOUDY    16   5  62 NW16G24   30.04S WCI   1
$$

LMZ563-521-522-541>543-121600-
LAKESHORE

STATION/POSITION TIME  TEMP    WIND        PRES    VSBY  WAVE
                       AIR SEA DIR/SP/G                  HT/PER
                 (UTC) (F)     (DEG/KT/KT) (MB)    (MI)  (FT/S)
SHEBOYGAN LKSHOR 1500   16     320/ 15/ 17 1018.7R
KEWAUNEE LKSHORE 1448   15     330/ 12/ 17 1016.5S
NORTHPORT PIER   1433   17     310/ 25     1015.9S
MENOMINEE LKSHOR 1448   15     330/ 18/ 25 1017.2R
$$




USA.gov is the U.S. government's official web portal to all federal, state and local government web resources and services.